GFSNW_prec_kuchsnow_198.txt.gz
Snowfall_Accumulation
0.0 0.0 0.0 0.0 0.0 0.0 0.0 0.0 15.2 0.0 0.0 5.3 3.7 4.6 0.0 0.0 0.0 0.0 0.0 0.0 0.0 0.0 0.0 0.0 0.0 0.0 0.0 0.0 0.0 0.0 0.0 0.2 0.7 0.0 0.0 0.0 0.0 1.1 4.9 14.2 15.7 8.5 7.1 0.3
0.0 0.0 0.0 0.0 0.0 0.0 0.0 4.6 6.6 0.0 0.0 23.3 10.4 0.0 0.1 0.0 0.0 0.0 0.0 0.1 0.0 0.0 0.0 0.2 0.0 0.0 0.0 0.0 0.0 0.0 0.0 2.7 3.4 0.0 0.0 0.0 0.6 0.8 1.3 5.5 9.0 7.3 11.2 1.0
0.0 0.0 0.0 0.0 0.0 0.0 0.0 5.5 23.2 6.5 0.8 2.7 1.7 2.2 1.2 0.7 0.0 0.0 0.0 0.0 0.0 0.0 0.0 0.0 0.0 0.0 0.0 0.0 0.0 0.0 0.0 1.8 2.0 3.3 0.9 0.4 0.5 0.1 0.0 2.3 8.1 2.0 2.0 0.1
0.0 0.0 0.0 0.0 0.0 0.0 0.0 19.1 13.6 0.0 12.4 7.3 3.2 1.3 0.8 1.3 1.4 0.0 0.0 0.0 0.2 1.0 3.2 0.8 0.5 0.0 0.0 0.0 0.0 0.0 0.1 3.7 0.1 0.0 0.0 0.1 0.0 0.0 0.1 1.4 1.7 5.8 0.2 0.3
0.0 0.0 0.0 0.0 0.0 0.0 0.5 33.5 8.6 1.3 0.0 0.1 1.2 1.9 2.8 1.9 1.5 2.4 1.2 1.6 0.9 0.5 4.8 2.5 5.2 1.6 0.2 0.1 0.0 0.0 0.1 7.4 1.3 0.9 0.0 0.0 0.3 0.1 0.2 0.1 0.1 0.4 0.3 0.6
0.0 0.0 0.0 0.0 0.0 0.0 0.7 1.3 0.0 1.2 1.1 1.1 1.1 1.2 0.4 0.8 2.3 0.0 0.5 3.0 4.0 1.9 0.8 0.1 0.0 0.0 0.0 0.0 0.0 1.0 1.7 3.8 5.0 6.2 0.1 0.1 2.9 0.2 0.0 1.3 1.9 2.1 1.0 0.8
0.0 0.0 0.0 0.0 0.0 0.0 0.0 0.0 0.0 11.2 10.0 1.9 0.1 0.0 0.0 1.7 1.2 1.5 0.1 0.0 0.4 0.0 0.0 0.0 0.0 0.0 0.0 0.0 0.0 0.0 0.7 2.9 5.8 8.4 0.9 13.8 0.1 0.0 0.0 1.4 0.9 0.0 0.1 0.0
0.0 0.0 0.0 0.0 0.0 0.0 0.0 0.0 0.0 8.6 12.8 0.6 0.3 0.7 1.2 0.0 0.0 0.0 0.0 0.0 0.0 0.0 0.0 4.2 1.9 0.6 0.2 0.8 0.0 0.0 0.0 1.9 10.2 11.8 5.5 0.4 0.4 0.0 0.3 1.1 1.1 0.3 0.4 0.1
0.0 0.0 0.0 0.0 0.0 0.0 0.0 0.0 0.0 3.3 18.1 3.0 0.2 0.3 0.0 0.3 0.2 0.2 0.1 0.0 0.0 0.0 1.4 5.2 6.9 8.3 2.8 2.4 1.5 0.0 0.1 0.8 7.7 8.5 13.4 6.7 1.7 0.3 0.0 0.0 5.6 1.5 0.5 0.2
0.0 0.0 0.0 0.0 0.0 0.0 0.0 0.0 0.0 0.0 14.1 0.3 0.0 3.0 0.3 0.0 0.4 1.1 0.0 0.0 0.0 0.0 6.1 9.5 7.3 3.3 0.1 2.3 5.9 8.3 5.8 10.5 19.1 13.5 21.0 4.7 1.0 0.0 0.0 2.1 7.2 1.0 0.7 1.4
0.0 0.0 0.0 0.0 0.0 0.0 0.0 0.0 0.0 0.0 5.8 0.2 0.0 0.0 0.1 0.5 0.3 2.2 0.9 0.9 1.9 3.0 9.0 5.7 4.3 4.1 1.8 3.1 1.2 8.8 13.2 16.8 10.9 12.3 18.1 15.0 0.5 0.0 3.5 3.0 0.9 1.3 1.6 2.2
0.0 0.0 0.0 0.0 0.0 0.0 0.0 0.0 0.0 0.0 3.0 0.9 0.0 0.0 0.0 0.0 0.0 1.1 0.6 2.1 2.1 3.3 8.8 6.5 2.6 4.8 2.3 2.5 5.5 3.4 16.1 11.6 12.4 7.4 6.6 2.0 1.2 1.8 1.6 1.6 2.1 2.1 1.9 1.2
0.0 0.0 0.0 0.0 0.0 0.0 0.0 0.0 0.0 0.0 10.7 5.7 0.0 0.0 0.0 0.0 0.0 0.0 4.2 0.5 0.0 0.6 0.0 4.4 2.9 4.2 0.9 3.7 2.8 4.9 5.1 3.0 11.6 6.1 3.2 1.2 2.1 0.8 0.9 1.2 1.5 0.5 0.0 0.0
0.0 0.0 0.0 0.0 0.0 0.0 0.0 0.0 0.0 0.0 6.2 18.4 0.8 0.0 0.0 0.0 0.0 0.0 0.0 0.0 0.0 0.0 2.1 10.0 7.0 5.5 0.4 0.7 0.2 1.6 4.6 2.7 5.6 7.9 5.9 0.8 0.9 1.5 1.8 0.8 0.3 0.3 0.0 0.0
0.0 0.0 0.0 0.0 0.0 0.0 0.0 0.0 0.0 0.0 0.4 8.8 2.4 0.0 0.0 0.0 0.0 0.0 0.0 0.0 0.0 1.4 9.5 12.7 8.1 0.9 1.8 0.2 0.5 2.8 0.2 1.7 6.1 10.8 5.4 6.3 4.4 5.5 1.8 1.1 0.2 0.0 0.0 0.0
0.0 0.0 0.0 0.0 0.0 0.0 0.0 7.8 0.0 0.0 0.0 8.3 7.0 0.0 0.0 0.0 0.0 0.0 0.0 0.0 0.0 2.9 9.1 6.7 2.2 0.0 2.9 9.7 2.3 0.0 0.0 0.5 2.0 2.2 1.8 1.6 1.6 0.0 0.0 0.4 1.1 0.7 0.0 0.2
0.0 0.0 0.0 0.0 0.0 0.0 1.1 3.6 0.0 0.0 0.0 16.4 15.3 3.0 0.9 0.0 0.0 0.0 0.0 0.0 0.3 0.8 5.8 3.6 0.5 0.1 3.0 5.2 1.5 0.1 0.0 0.1 0.0 0.0 0.0 0.0 0.0 0.3 0.0 0.0 0.0 0.4 0.0 0.0
0.0 0.0 0.0 0.0 0.0 0.0 0.2 0.0 0.0 0.0 0.3 2.3 18.7 4.3 4.6 0.0 2.7 3.1 0.7 1.9 1.5 2.9 2.3 2.1 1.3 0.7 1.6 5.6 0.2 0.0 0.0 0.0 0.0 0.0 0.0 0.1 0.0 0.0 0.0 0.0 0.0 0.0 0.0 0.0
0.0 0.0 0.0 0.0 0.0 8.1 0.0 0.0 0.0 0.0 0.1 10.9 8.2 8.2 12.9 1.1 2.1 1.7 2.7 1.1 9.5 0.8 4.5 1.0 1.3 2.5 6.5 1.1 0.1 0.0 0.0 0.1 0.2 0.1 0.0 0.0 0.1 0.0 0.0 0.0 0.0 0.0 0.0 0.0
0.0 0.0 22.3 47.1 2.8 0.0 0.0 0.0 10.4 10.7 5.2 2.4 5.9 1.8 10.2 2.5 6.0 6.0 7.3 3.1 5.9 8.8 1.0 0.1 3.9 2.2 0.6 0.2 0.2 0.1 0.1 0.1 0.1 1.4 0.4 0.1 0.1 0.1 0.1 0.2 0.1 0.2 0.1 0.0
0.0 21.4 9.2 0.0 0.0 0.0 3.6 23.2 23.2 10.4 11.9 2.6 0.6 0.4 2.8 0.5 10.5 8.4 1.5 14.7 4.9 9.6 1.3 3.1 4.2 4.2 2.0 0.1 0.3 0.0 0.0 0.0 0.0 0.1 0.0 0.1 1.2 1.4 0.8 0.3 0.2 0.2 0.1 0.1
0.0 0.0 0.0 0.0 1.3 9.2 16.3 12.9 11.0 4.8 1.7 0.4 0.9 2.0 2.8 2.3 2.3 13.2 8.8 9.0 12.0 8.0 0.7 11.9 8.3 5.3 0.7 0.1 0.2 0.0 0.0 0.0 0.2 0.2 1.5 1.1 1.2 1.0 1.0 0.6 0.4 0.4 0.3 1.6
0.0 1.3 8.5 12.1 17.6 21.6 14.8 10.4 4.9 5.2 2.7 1.2 4.2 11.0 8.9 6.9 8.1 17.3 10.9 13.8 7.6 0.5 8.6 5.8 7.6 1.4 0.1 0.1 0.1 0.0 0.0 0.2 1.2 1.4 0.9 1.1 0.6 0.3 0.5 0.7 1.3 1.8 3.1 5.3
7.1 19.6 26.6 17.7 15.0 7.8 4.4 1.8 3.0 3.1 3.0 1.4 3.0 13.1 14.6 7.7 15.6 10.4 16.7 9.2 5.1 12.6 10.8 11.6 3.3 1.0 0.5 0.4 0.1 0.0 0.1 0.4 0.9 1.0 0.5 0.6 0.8 1.1 1.8 2.6 4.2 3.9 6.1 9.1
13.2 8.6 12.7 10.1 6.7 4.4 3.9 1.9 0.5 0.8 0.3 0.7 4.4 7.6 10.1 15.3 18.7 10.8 9.7 17.7 15.9 13.9 15.7 9.8 4.2 1.7 1.4 1.3 1.8 1.7 0.9 2.1 2.9 5.5 6.2 5.1 4.9 4.7 6.6 7.8 7.5 6.2 7.1 7.7
7.2 5.9 7.8 4.9 4.2 5.7 4.3 3.3 3.4 1.7 1.7 0.8 2.0 14.1 15.4 21.6 13.3 19.1 14.7 15.7 16.6 15.8 7.4 5.0 3.2 3.4 4.1 4.1 4.6 5.6 6.6 8.6 11.0 11.9 11.8 11.5 10.5 9.4 10.5 11.7 10.8 11.0 9.3 10.4
5.6 9.1 6.8 5.3 5.0 9.0 6.9 5.3 5.1 2.0 4.3 8.4 7.6 15.3 15.2 8.1 10.8 10.5 6.8 12.9 9.8 5.6 5.2 5.4 5.0 5.3 6.1 6.3 6.9 8.0 8.0 7.7 9.0 10.5 10.4 12.8 11.5 10.0 8.2 9.5 12.0 10.7 10.5 9.7

GFSNW_prec_kuchsnow_201.txt.gz
Snowfall_Accumulation
0.0 0.0 0.0 0.0 0.0 0.0 0.0 0.0 15.2 0.0 0.0 5.3 3.7 4.6 0.0 0.0 0.0 0.0 0.0 0.0 0.0 0.0 0.0 0.0 0.0 0.0 0.0 0.0 0.0 0.0 0.0 0.2 0.7 0.0 0.0 0.0 0.0 1.1 4.9 14.4 15.7 8.5 7.1 0.3
0.0 0.0 0.0 0.0 0.0 0.0 0.0 4.6 6.6 0.0 0.0 23.3 10.4 0.0 0.1 0.0 0.0 0.0 0.0 0.1 0.0 0.0 0.0 0.2 0.0 0.0 0.0 0.0 0.0 0.0 0.0 2.8 3.4 0.0 0.0 0.0 0.6 0.8 1.3 5.8 9.5 7.3 11.2 1.0
0.0 0.0 0.0 0.0 0.0 0.0 0.0 5.5 23.2 6.5 0.8 2.7 1.7 2.2 1.2 0.7 0.0 0.0 0.0 0.0 0.0 0.0 0.0 0.0 0.0 0.0 0.0 0.0 0.0 0.0 0.0 1.8 2.0 3.3 0.9 0.4 0.5 0.1 0.0 2.3 8.9 2.4 2.2 0.1
0.0 0.0 0.0 0.0 0.0 0.0 0.0 19.1 13.6 0.0 12.4 7.3 3.2 1.3 0.8 1.3 1.4 0.0 0.0 0.0 0.2 1.0 3.2 0.8 0.5 0.0 0.0 0.0 0.0 0.0 0.1 3.7 0.1 0.0 0.0 0.1 0.0 0.0 0.1 1.4 1.7 5.9 0.2 0.3
0.0 0.0 0.0 0.0 0.0 0.0 0.5 33.5 8.6 1.3 0.0 0.1 1.2 1.9 2.8 1.9 1.5 2.4 1.2 1.6 0.9 0.5 4.8 2.5 5.2 1.6 0.2 0.1 0.0 0.0 0.1 8.7 2.1 0.9 0.1 0.0 0.3 0.1 0.2 0.1 0.1 0.4 0.3 0.6
0.0 0.0 0.0 0.0 0.0 0.0 0.7 1.3 0.0 1.2 1.1 1.1 1.1 1.2 0.4 0.8 2.3 0.0 0.5 3.0 4.0 1.9 0.8 0.1 0.0 0.0 0.0 0.0 0.0 1.0 1.7 3.8 5.4 6.6 0.1 0.1 2.9 0.2 0.0 1.3 1.9 2.1 1.0 0.8
0.0 0.0 0.0 0.0 0.0 0.0 0.0 0.0 0.0 11.2 10.0 1.9 0.1 0.0 0.0 1.7 1.2 1.5 0.1 0.0 0.4 0.0 0.0 0.0 0.0 0.0 0.0 0.0 0.0 0.0 0.7 2.9 5.8 8.4 0.9 13.8 0.1 0.0 0.0 1.4 0.9 0.0 0.1 0.0
0.0 0.0 0.0 0.0 0.0 0.0 0.0 0.0 0.0 8.6 12.8 0.6 0.3 0.7 1.2 0.0 0.0 0.0 0.0 0.0 0.0 0.0 0.0 4.2 1.9 0.6 0.2 0.8 0.0 0.0 0.0 1.9 10.2 11.8 5.5 0.4 0.4 0.0 0.3 1.1 1.1 0.3 0.4 0.1
0.0 0.0 0.0 0.0 0.0 0.0 0.0 0.0 0.0 3.3 18.1 3.0 0.2 0.3 0.0 0.3 0.2 0.2 0.1 0.0 0.0 0.0 1.4 5.2 6.9 8.3 2.8 2.4 1.5 0.0 0.1 0.8 8.3 9.6 15.0 7.5 1.7 0.3 0.0 0.0 5.6 1.5 0.5 0.2
0.0 0.0 0.0 0.0 0.0 0.0 0.0 0.0 0.0 0.0 14.1 0.3 0.0 3.0 0.3 0.0 0.4 1.1 0.0 0.0 0.0 0.0 6.1 9.5 7.3 3.3 0.1 2.3 5.9 8.3 5.8 10.5 19.1 13.5 21.3 4.8 1.0 0.0 0.0 2.1 7.2 1.0 0.7 1.4
0.0 0.0 0.0 0.0 0.0 0.0 0.0 0.0 0.0 0.0 5.8 0.2 0.0 0.0 0.1 0.5 0.3 2.2 0.9 0.9 1.9 3.0 9.0 5.7 4.3 4.1 1.9 3.1 1.2 8.8 13.2 16.9 10.9 12.3 18.1 15.0 0.5 0.0 3.5 3.0 0.9 1.3 1.6 2.2
0.0 0.0 0.0 0.0 0.0 0.0 0.0 0.0 0.0 0.0 3.0 0.9 0.0 0.0 0.0 0.0 0.0 1.1 0.6 2.1 2.1 3.3 8.8 6.5 2.6 4.8 2.3 2.5 5.5 3.4 16.1 11.6 12.5 7.4 6.6 2.0 1.2 1.8 1.6 1.6 2.1 2.1 1.9 1.2
0.0 0.0 0.0 0.0 0.0 0.0 0.0 0.0 0.0 0.0 10.7 5.7 0.0 0.0 0.0 0.0 0.0 0.0 4.2 0.5 0.0 0.6 0.0 4.4 2.9 4.2 0.9 3.7 2.8 4.9 5.1 3.0 11.6 6.1 3.2 1.2 2.1 0.8 0.9 1.2 1.5 0.5 0.0 0.0
0.0 0.0 0.0 0.0 0.0 0.0 0.0 0.0 0.0 0.0 6.2 18.4 0.8 0.0 0.0 0.0 0.0 0.0 0.0 0.0 0.0 0.0 2.1 10.0 7.0 5.5 0.4 0.7 0.2 1.6 4.6 2.7 5.6 7.9 5.9 0.8 0.9 1.5 1.8 0.8 0.3 0.3 0.0 0.0
0.0 0.0 0.0 0.0 0.0 0.0 0.0 0.0 0.0 0.0 0.4 8.8 2.4 0.0 0.0 0.0 0.0 0.0 0.0 0.0 0.0 1.4 9.5 12.7 8.1 0.9 1.8 0.2 0.5 2.8 0.2 1.7 6.1 10.8 5.4 6.3 4.4 5.5 1.8 1.1 0.2 0.0 0.0 0.0
0.0 0.0 0.0 0.0 0.0 0.0 0.0 7.8 0.0 0.0 0.0 8.3 7.0 0.0 0.0 0.0 0.0 0.0 0.0 0.0 0.0 2.9 9.1 6.7 2.2 0.0 2.9 9.7 2.3 0.0 0.0 0.5 2.0 2.2 1.8 1.6 1.6 0.0 0.0 0.4 1.1 0.7 0.0 0.2
0.0 0.0 0.0 0.0 0.0 0.0 1.1 3.6 0.0 0.0 0.0 16.4 15.3 3.0 0.9 0.0 0.0 0.0 0.0 0.0 0.3 0.9 5.8 3.6 0.5 0.1 3.1 5.2 1.5 0.1 0.0 0.1 0.0 0.0 0.0 0.0 0.0 0.4 0.0 0.0 0.0 0.4 0.0 0.0
0.0 0.0 0.0 0.0 0.0 0.0 0.2 0.0 0.0 0.0 0.3 2.3 18.7 4.3 4.6 0.0 2.7 3.1 0.7 1.9 1.5 2.9 2.3 2.1 1.3 0.7 1.6 5.6 0.2 0.0 0.0 0.0 0.1 0.1 0.0 0.1 0.0 0.0 0.0 0.0 0.0 0.0 0.1 0.0
0.0 0.0 0.0 0.0 0.0 8.1 0.0 0.0 0.0 0.0 0.1 11.0 8.2 8.2 12.9 1.1 2.1 1.7 2.7 1.1 9.5 0.8 4.5 1.0 1.3 2.5 6.5 1.1 0.1 0.0 0.0 0.4 0.2 0.1 0.0 0.0 0.1 0.0 0.0 0.0 0.2 0.3 0.1 0.0
0.0 0.0 22.3 47.1 2.8 0.0 0.0 0.0 10.4 10.7 5.2 2.4 5.9 1.8 10.2 2.5 6.0 6.4 7.3 3.1 6.1 8.8 1.0 0.1 4.3 2.2 0.6 0.2 0.2 0.1 0.1 0.1 0.1 1.9 0.8 0.1 0.2 0.2 0.1 0.3 0.4 0.5 0.4 0.1
0.0 21.4 9.4 0.0 0.0 0.0 3.6 23.2 23.2 10.4 11.9 2.6 0.6 0.4 2.8 0.5 10.8 9.0 1.5 14.7 5.2 9.9 1.3 3.1 4.3 5.4 2.2 0.1 0.3 0.0 0.0 0.0 0.0 0.1 0.1 0.1 1.5 2.2 1.2 0.6 0.5 0.6 0.3 0.2
0.0 0.0 0.0 0.0 1.3 9.2 16.3 12.9 11.0 4.8 1.7 0.5 0.9 2.0 2.8 2.5 2.5 13.9 9.1 9.3 12.2 8.0 0.7 12.2 10.1 6.7 0.7 0.1 0.2 0.0 0.0 0.0 0.2 0.2 1.5 1.1 1.5 1.7 1.5 1.2 1.0 0.7 0.5 1.7
0.0 1.3 8.5 12.3 17.6 21.6 14.8 10.4 4.9 5.2 2.7 1.2 4.2 11.1 9.1 7.1 8.2 17.6 10.9 14.0 7.6 0.5 8.9 6.8 9.0 1.4 0.1 0.1 0.1 0.0 0.0 0.2 1.2 1.4 0.9 1.1 0.6 0.3 1.0 1.1 1.3 2.1 3.3 5.4
7.1 19.6 26.6 17.7 15.0 7.8 4.4 1.8 3.2 3.1 3.0 1.4 3.0 13.2 14.9 7.7 16.2 10.4 17.0 9.2 5.1 12.6 10.8 13.4 3.3 1.0 0.5 0.4 0.1 0.0 0.1 0.4 0.9 1.0 0.5 0.6 0.8 1.1 1.8 2.9 4.4 4.2 6.1 9.1
13.6 8.6 12.7 10.1 6.7 4.4 3.9 1.9 0.5 0.8 0.3 0.7 4.4 7.6 10.1 15.3 19.2 11.1 9.7 18.1 15.9 13.9 17.1 10.0 4.2 1.7 1.4 1.3 1.8 1.7 0.9 2.1 2.9 5.5 6.2 5.1 4.9 4.7 6.6 7.8 7.6 6.4 7.3 7.7
7.2 5.9 7.8 4.9 4.2 5.7 4.3 3.3 3.4 1.7 1.7 0.8 2.0 14.1 15.4 21.6 13.9 20.0 15.4 15.7 17.6 17.5 7.8 5.0 3.2 3.4 4.1 4.1 4.6 5.6 6.6 8.6 11.0 11.9 11.8 11.5 10.5 9.4 10.5 11.7 10.8 11.1 9.5 10.6
5.6 9.1 6.8 5.3 5.0 9.0 6.9 5.3 5.1 2.0 4.3 8.4 7.6 15.3 15.3 8.1 11.0 10.5 6.8 13.3 10.5 6.0 5.4 5.4 5.0 5.3 6.1 6.3 6.9 8.0 8.0 7.7 9.0 10.5 10.4 12.8 11.5 10.0 8.2 9.5 12.0 10.7 10.7 10.1

GFSNW_prec_kuchsnow_207.txt.gz
Snowfall_Accumulation
0.0 0.0 0.0 0.0 0.0 0.0 0.0 0.0 16.3 0.0 0.0 5.4 5.7 5.3 0.0 0.0 0.0 0.0 0.0 0.0 0.0 0.0 0.0 0.0 0.0 0.0 0.0 0.0 0.0 0.0 0.0 0.2 0.7 0.0 0.0 0.0 0.0 1.1 4.9 14.4 15.7 8.9 7.8 0.5
0.0 0.0 0.0 0.0 0.0 0.0 0.0 4.6 9.5 0.0 0.0 26.3 11.9 0.0 0.1 0.0 0.0 0.0 0.0 0.1 0.0 0.0 0.0 0.2 0.0 0.0 0.0 0.0 0.0 0.0 0.0 2.8 3.4 0.0 0.0 0.0 0.6 0.8 1.3 5.8 9.5 7.3 12.9 1.0
0.0 0.0 0.0 0.0 0.0 0.0 0.0 5.5 26.6 8.8 0.8 3.0 2.0 2.6 1.6 1.1 0.0 0.0 0.0 0.0 0.0 0.0 0.0 0.0 0.0 0.0 0.0 0.0 0.0 0.0 0.0 1.8 2.0 3.3 0.9 0.4 0.5 0.1 0.0 2.3 9.2 2.4 2.2 0.1
0.0 0.0 0.0 0.0 0.0 0.0 0.0 19.1 14.7 0.0 13.6 7.9 3.5 1.4 1.0 1.6 1.5 0.0 0.0 0.0 0.2 1.0 3.2 0.8 0.5 0.0 0.0 0.0 0.0 0.0 0.1 3.7 0.1 0.0 0.0 0.1 0.0 0.0 0.1 1.4 1.7 6.1 0.3 0.3
0.0 0.0 0.0 0.0 0.0 0.0 0.5 33.7 8.8 1.3 0.1 0.1 1.5 2.2 2.9 2.1 1.5 2.4 1.2 1.6 0.9 0.5 4.8 2.5 5.2 1.6 0.2 0.1 0.0 0.0 0.1 8.7 2.1 0.9 0.1 0.1 0.6 0.1 0.2 0.1 0.1 0.4 0.3 0.6
0.0 0.0 0.0 0.0 0.0 0.0 0.7 1.3 0.0 1.2 1.2 1.4 1.3 1.3 0.4 0.8 2.3 0.0 0.5 3.0 4.0 1.9 0.8 0.1 0.0 0.0 0.0 0.0 0.0 1.0 1.7 3.8 5.4 6.9 0.1 0.1 3.4 0.2 0.0 1.3 1.9 2.1 1.0 0.8
0.0 0.0 0.0 0.0 0.0 0.0 0.0 0.0 0.0 11.2 10.2 1.9 0.1 0.0 0.0 1.7 1.2 1.5 0.1 0.0 0.4 0.0 0.0 0.0 0.0 0.0 0.0 0.0 0.0 0.0 0.7 2.9 5.8 8.4 0.9 14.1 0.1 0.0 0.0 1.4 0.9 0.0 0.1 0.0
0.0 0.0 0.0 0.0 0.0 0.0 0.0 0.0 0.0 8.6 12.9 0.6 0.3 0.7 1.2 0.0 0.0 0.0 0.0 0.0 0.0 0.0 0.0 4.2 1.9 0.6 0.2 0.8 0.0 0.0 0.0 1.9 10.2 11.9 5.5 0.4 0.4 0.0 0.3 1.1 1.1 0.3 0.4 0.1
0.0 0.0 0.0 0.0 0.0 0.0 0.0 0.0 0.0 3.3 18.1 3.0 0.2 0.3 0.0 0.3 0.2 0.2 0.1 0.0 0.0 0.0 1.4 5.2 6.9 8.3 2.8 2.4 1.5 0.0 0.1 0.8 8.3 10.1 17.2 9.4 1.7 0.3 0.0 0.0 5.6 1.5 0.5 0.2
0.0 0.0 0.0 0.0 0.0 0.0 0.0 0.0 0.0 0.0 14.1 0.3 0.0 3.0 0.3 0.0 0.4 1.1 0.0 0.0 0.0 0.0 6.1 9.5 7.3 3.3 0.1 2.3 5.9 8.3 5.8 10.5 19.1 13.5 21.6 4.8 1.0 0.0 0.0 2.1 7.2 1.0 0.7 1.4
0.0 0.0 0.0 0.0 0.0 0.0 0.0 0.0 0.0 0.0 5.8 0.2 0.0 0.0 0.1 0.5 0.3 2.2 0.9 0.9 1.9 3.0 9.0 5.7 4.3 4.1 1.9 3.1 1.2 8.8 13.2 16.9 10.9 12.3 18.1 15.0 0.5 0.0 3.5 3.0 0.9 1.3 1.6 2.2
0.0 0.0 0.0 0.0 0.0 0.0 0.0 0.0 0.0 0.0 3.0 0.9 0.0 0.0 0.0 0.0 0.0 1.1 0.6 2.1 2.1 3.3 8.8 6.5 2.6 4.8 2.3 2.5 5.5 3.4 16.1 11.6 12.5 7.4 6.6 2.0 1.2 1.8 1.6 1.6 2.1 2.1 1.9 1.2
0.0 0.0 0.0 0.0 0.0 0.0 0.0 0.0 0.0 0.0 10.7 5.7 0.0 0.0 0.0 0.0 0.0 0.0 4.2 0.5 0.0 0.6 0.0 4.4 2.9 4.2 0.9 3.7 2.8 4.9 5.1 3.0 11.6 6.1 3.2 1.2 2.1 0.8 0.9 1.2 1.5 0.5 0.0 0.0
0.0 0.0 0.0 0.0 0.0 0.0 0.0 0.0 0.0 0.0 6.2 18.4 0.8 0.0 0.0 0.0 0.0 0.0 0.0 0.0 0.0 0.0 2.1 10.0 7.0 5.5 0.4 0.7 0.2 1.6 4.6 2.7 5.6 7.9 5.9 0.8 0.9 1.5 1.8 0.8 0.3 0.3 0.0 0.0
0.0 0.0 0.0 0.0 0.0 0.0 0.0 0.0 0.0 0.0 0.4 8.8 2.4 0.0 0.0 0.0 0.0 0.0 0.0 0.0 0.0 1.5 9.5 12.7 8.1 0.9 1.8 0.2 0.5 2.8 0.2 1.7 6.1 10.8 5.4 6.3 4.4 5.5 1.8 1.1 0.3 0.0 0.0 0.0
0.0 0.0 0.0 0.0 0.0 0.0 0.0 7.8 0.0 0.0 0.0 8.3 7.0 0.0 0.0 0.0 0.0 0.0 0.0 0.0 0.0 3.0 9.1 6.7 2.2 0.0 2.9 9.7 2.3 0.0 0.0 0.5 2.0 2.2 1.8 1.9 1.8 0.0 0.0 0.4 1.1 0.7 0.0 0.2
0.0 0.0 0.0 0.0 0.0 0.0 1.1 3.6 0.0 0.0 0.0 16.4 15.3 3.0 0.9 0.0 0.0 0.0 0.0 0.0 0.3 0.9 5.8 3.6 0.5 0.1 3.1 5.2 1.5 0.1 0.0 0.1 0.0 0.0 0.5 0.4 0.0 0.4 0.0 0.0 0.0 0.4 0.0 0.0
0.0 0.0 0.0 0.0 0.0 0.0 0.2 0.0 0.0 0.0 0.3 2.3 18.7 4.3 4.6 0.0 2.7 3.1 0.7 1.9 1.5 2.9 2.3 2.1 1.3 0.7 1.6 5.9 0.2 0.0 0.0 0.0 0.1 0.1 0.0 0.1 0.0 0.0 0.0 0.0 0.0 0.2 0.1 0.0
0.0 0.0 0.0 0.0 0.0 8.1 0.0 0.0 0.0 0.0 0.1 11.0 8.2 8.2 12.9 1.1 2.1 1.7 2.7 1.1 9.5 0.8 4.5 1.0 1.3 2.5 6.6 1.1 0.1 0.0 0.0 0.4 0.2 0.1 0.0 0.0 0.1 0.0 0.0 0.0 0.2 0.6 0.1 0.0
0.0 0.0 22.3 47.1 2.8 0.0 0.0 0.0 10.4 10.7 5.2 2.4 5.9 1.8 10.2 2.5 6.0 6.4 7.3 3.1 6.2 8.8 1.0 0.1 4.5 2.2 0.6 0.2 0.2 0.1 0.1 0.1 0.1 1.9 0.8 0.1 0.2 0.2 0.1 0.3 0.5 1.0 0.6 0.4
0.0 21.4 9.4 0.0 0.0 0.0 3.6 23.2 23.2 10.4 11.9 2.6 0.6 0.4 2.8 0.5 11.0 9.2 1.5 14.7 5.6 10.7 1.3 3.5 4.8 6.6 2.2 0.1 0.3 0.0 0.0 0.0 0.0 0.1 0.1 0.1 1.7 2.6 1.6 0.6 0.5 0.8 0.5 0.7
0.0 0.0 0.0 0.0 1.3 9.2 16.3 12.9 11.0 4.8 1.7 0.5 0.9 2.0 2.8 2.6 2.7 14.6 9.9 10.0 12.5 8.0 0.7 13.1 11.0 6.7 0.7 0.1 0.2 0.0 0.0 0.0 0.2 0.2 1.5 1.1 1.5 1.7 1.5 1.5 1.4 1.0 0.8 1.9
0.0 1.3 8.5 12.3 17.6 21.6 14.8 10.4 4.9 5.2 2.7 1.2 4.2 11.1 9.1 7.4 8.7 18.2 11.2 14.3 7.6 0.5 9.5 7.4 9.8 1.4 0.1 0.1 0.1 0.0 0.0 0.2 1.2 1.4 0.9 1.1 0.6 0.3 1.0 1.1 1.3 2.1 3.4 5.6
7.1 19.6 26.6 17.7 15.0 7.8 4.4 1.8 3.5 3.8 3.0 1.4 3.0 13.2 14.9 7.7 17.2 10.5 17.2 9.2 5.1 12.9 11.1 14.6 4.0 1.0 0.5 0.4 0.1 0.0 0.1 0.4 0.9 1.0 0.5 0.6 0.8 1.1 1.8 2.9 4.4 4.2 6.2 9.2
13.6 8.6 12.7 10.1 6.7 4.4 3.9 1.9 0.5 0.8 0.3 0.7 4.4 7.6 10.1 15.3 19.8 11.6 9.7 18.9 16.4 13.9 18.8 11.1 4.4 1.7 1.4 1.3 1.8 1.7 0.9 2.1 2.9 5.5 6.2 5.1 4.9 4.7 6.6 7.8 7.6 6.4 7.3 7.9
7.2 5.9 7.8 4.9 4.2 5.7 4.3 3.3 3.4 1.7 1.7 0.8 2.0 14.1 15.6 21.6 14.3 21.2 15.4 15.9 17.8 17.5 7.8 5.0 3.2 3.4 4.1 4.1 4.6 5.6 6.6 8.6 11.0 11.9 11.8 11.5 10.5 9.4 10.5 11.7 10.8 11.1 9.5 10.6
5.6 9.1 6.8 5.3 5.0 9.0 6.9 5.3 5.1 2.0 4.3 8.4 7.6 15.3 15.3 8.1 11.0 10.5 6.8 13.3 10.5 6.0 5.4 5.4 5.0 5.3 6.1 6.3 6.9 8.0 8.0 7.7 9.0 10.5 10.4 12.8 11.5 10.0 8.2 9.5 12.0 10.7 10.7 10.1

GFSNW_prec_kuchsnow_210.txt.gz
Snowfall_Accumulation
0.0 0.0 0.0 0.0 0.0 0.0 0.0 0.0 16.3 0.0 0.0 5.4 5.7 6.8 0.0 0.0 0.0 0.0 0.0 0.0 0.0 0.0 0.0 0.0 0.0 0.0 0.0 0.0 0.0 0.0 0.0 0.2 0.7 0.0 0.0 0.0 0.0 1.1 4.9 14.4 15.7 8.9 7.8 0.5
0.0 0.0 0.0 0.0 0.0 0.0 0.0 4.6 9.5 0.0 0.0 28.7 13.5 0.0 0.1 0.0 0.0 0.0 0.0 0.1 0.0 0.0 0.0 0.2 0.0 0.0 0.0 0.0 0.0 0.0 0.0 2.8 3.4 0.0 0.0 0.0 0.6 0.8 1.3 5.8 9.5 7.3 13.4 1.0
0.0 0.0 0.0 0.0 0.0 0.0 0.0 5.5 30.5 11.2 0.8 4.2 2.0 2.8 1.8 1.4 0.0 0.0 0.0 0.0 0.0 0.0 0.0 0.0 0.1 0.0 0.0 0.0 0.0 0.0 0.0 1.8 2.0 3.3 0.9 0.4 0.5 0.1 0.0 2.3 9.5 2.8 2.2 0.1
0.0 0.0 0.0 0.0 0.0 0.0 0.0 19.1 16.8 0.0 15.1 7.9 3.9 1.4 1.0 1.6 2.3 0.0 0.0 0.1 0.3 1.0 3.4 0.9 0.7 0.0 0.0 0.0 0.0 0.0 0.1 3.7 0.1 0.0 0.0 0.1 0.0 0.0 0.1 1.4 1.7 6.5 0.3 0.3
0.0 0.0 0.0 0.0 0.0 0.0 0.5 33.7 8.8 1.3 0.1 0.1 1.9 2.9 3.7 2.4 1.9 2.6 1.3 1.6 0.9 0.6 5.0 2.5 5.2 1.7 0.2 0.1 0.0 0.0 0.1 8.7 2.1 0.9 0.1 0.1 0.6 0.1 0.2 0.1 0.1 0.4 0.3 0.6
0.0 0.0 0.0 0.0 0.0 0.0 0.7 1.3 0.0 1.2 1.8 2.3 2.3 2.2 0.8 1.0 2.5 0.0 0.5 3.0 4.0 2.0 0.8 0.1 0.0 0.0 0.0 0.0 0.0 1.0 1.7 3.8 5.4 6.9 0.1 0.1 3.4 0.2 0.0 1.3 1.9 2.1 1.0 0.8
0.0 0.0 0.0 0.0 0.0 0.0 0.0 0.0 0.0 11.4 11.2 2.5 0.4 0.2 0.2 1.9 1.4 1.6 0.1 0.0 0.4 0.0 0.0 0.0 0.0 0.0 0.0 0.0 0.0 0.0 0.7 2.9 5.8 8.4 0.9 14.1 0.1 0.0 0.0 1.4 0.9 0.0 0.1 0.0
0.0 0.0 0.0 0.0 0.0 0.0 0.0 0.0 0.0 8.6 13.0 0.6 0.5 0.8 1.4 0.1 0.0 0.1 0.0 0.0 0.0 0.0 0.0 4.2 1.9 0.6 0.2 0.8 0.0 0.0 0.0 1.9 10.2 11.9 5.5 0.4 0.4 0.0 0.3 1.1 1.1 0.3 0.4 0.1
0.0 0.0 0.0 0.0 0.0 0.0 0.0 0.0 0.0 3.3 18.1 3.1 0.2 0.3 0.0 0.3 0.2 0.2 0.1 0.0 0.0 0.0 1.4 5.2 6.9 8.3 2.8 2.4 1.5 0.0 0.1 0.8 8.3 10.1 17.2 9.4 1.7 0.3 0.0 0.0 5.6 1.5 0.5 0.2
0.0 0.0 0.0 0.0 0.0 0.0 0.0 0.0 0.0 0.0 14.1 0.3 0.0 3.0 0.3 0.0 0.4 1.1 0.0 0.0 0.0 0.0 6.1 9.5 7.3 3.3 0.1 2.3 5.9 8.3 5.8 10.5 19.1 13.5 21.6 4.8 1.0 0.0 0.0 2.1 7.2 1.0 0.7 1.4
0.0 0.0 0.0 0.0 0.0 0.0 0.0 0.0 0.0 0.0 5.8 0.2 0.0 0.0 0.1 0.5 0.3 2.2 0.9 0.9 1.9 3.0 9.0 5.7 4.3 4.1 1.9 3.1 1.2 8.8 13.2 16.9 10.9 12.3 18.1 15.0 0.5 0.0 3.5 3.0 0.9 1.3 1.6 2.2
0.0 0.0 0.0 0.0 0.0 0.0 0.0 0.0 0.0 0.0 3.0 0.9 0.0 0.0 0.0 0.0 0.0 1.1 0.6 2.1 2.1 3.3 8.8 6.5 2.6 4.8 2.3 2.5 5.5 3.4 16.1 11.6 12.5 7.4 6.6 2.0 1.2 1.8 1.6 1.6 2.1 2.1 1.9 1.2
0.0 0.0 0.0 0.0 0.0 0.0 0.0 0.0 0.0 0.0 10.7 5.7 0.0 0.0 0.0 0.0 0.0 0.0 4.2 0.5 0.0 0.6 0.0 4.4 2.9 4.2 0.9 3.7 2.8 4.9 5.1 3.0 11.6 6.1 3.2 1.2 2.1 0.8 0.9 1.2 1.5 0.5 0.0 0.0
0.0 0.0 0.0 0.0 0.0 0.0 0.0 0.0 0.0 0.0 6.2 18.4 0.8 0.0 0.0 0.0 0.0 0.0 0.0 0.0 0.0 0.0 2.1 10.0 7.0 5.5 0.4 0.7 0.2 1.6 4.6 2.7 5.6 7.9 5.9 0.8 0.9 1.5 1.8 0.8 0.3 0.3 0.0 0.0
0.0 0.0 0.0 0.0 0.0 0.0 0.0 0.0 0.0 0.0 0.4 8.8 2.4 0.0 0.0 0.0 0.0 0.0 0.0 0.0 0.0 1.5 9.5 12.7 8.1 0.9 1.8 0.2 0.5 2.8 0.2 1.7 6.1 10.8 5.4 6.3 4.4 5.5 1.8 1.1 0.3 0.0 0.0 0.0
0.0 0.0 0.0 0.0 0.0 0.0 0.0 7.8 0.0 0.0 0.0 8.3 7.0 0.0 0.0 0.0 0.0 0.0 0.0 0.0 0.0 3.0 9.1 6.7 2.2 0.0 2.9 9.7 2.3 0.0 0.0 0.5 2.0 2.2 1.8 1.9 1.8 0.0 0.0 0.4 1.1 0.7 0.0 0.2
0.0 0.0 0.0 0.0 0.0 0.0 1.1 3.6 0.0 0.0 0.0 16.4 15.3 3.0 0.9 0.0 0.0 0.0 0.0 0.0 0.3 0.9 5.8 3.6 0.5 0.1 3.1 5.2 1.5 0.1 0.0 0.1 0.0 0.0 0.5 0.4 0.0 0.4 0.0 0.0 0.0 0.4 0.0 0.0
0.0 0.0 0.0 0.0 0.0 0.0 0.2 0.0 0.0 0.0 0.3 2.3 18.7 4.3 4.6 0.0 2.7 3.1 0.7 1.9 1.5 2.9 2.3 2.1 1.3 0.7 1.6 6.0 0.2 0.0 0.0 0.0 0.1 0.1 0.0 0.1 0.0 0.0 0.0 0.0 0.0 0.2 0.1 0.0
0.0 0.0 0.0 0.0 0.0 8.1 0.0 0.0 0.0 0.0 0.1 11.0 8.2 8.2 12.9 1.1 2.1 1.7 2.7 1.1 9.5 0.8 4.5 1.0 1.3 2.5 6.6 1.1 0.1 0.0 0.0 0.4 0.2 0.1 0.0 0.0 0.1 0.0 0.0 0.0 0.2 0.6 0.1 0.0
0.0 0.0 22.3 47.1 2.8 0.0 0.0 0.0 10.4 10.7 5.2 2.4 5.9 1.8 10.2 2.5 6.0 6.4 7.3 3.1 6.2 8.8 1.0 0.1 4.7 2.2 0.6 0.2 0.2 0.1 0.1 0.1 0.1 1.9 0.8 0.1 0.2 0.2 0.1 0.3 0.5 1.0 0.6 0.4
0.0 21.4 9.4 0.0 0.0 0.0 3.6 23.2 23.2 10.4 11.9 2.6 0.6 0.4 2.8 0.5 11.0 9.2 1.5 14.7 5.8 11.1 1.3 3.5 4.8 6.6 2.2 0.1 0.3 0.0 0.0 0.0 0.0 0.1 0.1 0.1 1.7 2.6 1.6 0.6 0.5 0.8 0.5 0.7
0.0 0.0 0.0 0.0 1.3 9.2 16.3 12.9 11.0 4.8 1.7 0.5 0.9 2.0 2.8 2.6 2.7 14.6 10.0 10.3 12.8 8.0 0.7 13.5 11.0 6.7 0.7 0.1 0.2 0.0 0.0 0.0 0.2 0.2 1.5 1.1 1.5 1.7 1.5 1.5 1.4 1.0 0.8 1.9
0.0 1.3 8.5 12.3 17.6 21.6 14.8 10.4 4.9 5.2 2.7 1.2 4.2 11.1 9.1 7.4 8.8 18.6 11.6 14.6 7.7 0.7 9.9 7.4 9.8 1.4 0.1 0.1 0.1 0.0 0.0 0.2 1.2 1.4 0.9 1.1 0.6 0.3 1.0 1.1 1.3 2.1 3.4 5.6
7.1 19.6 26.6 17.7 15.0 7.8 4.4 1.8 3.5 3.8 3.0 1.4 3.0 13.2 14.9 7.7 17.5 10.7 17.2 9.2 5.2 13.2 11.2 14.6 4.0 1.0 0.5 0.4 0.1 0.0 0.1 0.4 0.9 1.0 0.5 0.6 0.8 1.1 1.8 2.9 4.4 4.2 6.2 9.2
13.6 8.6 12.7 10.1 6.7 4.4 3.9 1.9 0.5 0.8 0.3 0.7 4.4 7.6 10.1 15.4 20.1 11.8 9.7 19.1 16.4 13.9 18.8 11.1 4.4 1.7 1.4 1.3 1.8 1.7 0.9 2.1 2.9 5.5 6.2 5.1 4.9 4.7 6.6 7.8 7.6 6.4 7.3 7.9
7.2 5.9 7.8 4.9 4.2 5.7 4.3 3.3 3.4 1.7 1.7 0.8 2.0 14.1 15.7 21.6 14.4 21.5 15.4 16.0 17.8 17.5 7.8 5.0 3.2 3.4 4.1 4.1 4.6 5.6 6.6 8.6 11.0 11.9 11.8 11.5 10.5 9.4 10.5 11.7 10.8 11.1 9.5 10.6
5.6 9.1 6.8 5.3 5.0 9.0 6.9 5.3 5.1 2.0 4.3 8.4 7.6 15.3 15.3 8.1 11.1 10.6 6.8 13.3 10.5 6.0 5.4 5.4 5.0 5.3 6.1 6.3 6.9 8.0 8.0 7.7 9.0 10.5 10.4 12.8 11.5 10.0 8.2 9.5 12.0 10.7 10.7 10.1

GFSNW_prec_kuchsnow_216.txt.gz
Snowfall_Accumulation
0.0 0.0 0.0 0.0 0.0 0.0 0.0 0.0 16.3 0.0 0.0 5.4 5.7 6.8 0.0 0.0 0.0 0.0 0.0 0.0 0.0 0.0 0.0 0.0 0.0 0.0 0.0 0.0 0.0 0.0 0.0 0.2 0.7 0.0 0.0 0.0 0.0 1.1 4.9 14.4 15.7 8.9 7.8 0.5
0.0 0.0 0.0 0.0 0.0 0.0 0.0 4.6 9.5 0.0 0.0 35.0 17.0 0.0 0.1 0.0 0.0 0.0 0.0 0.1 0.0 0.0 0.0 0.2 0.0 0.0 0.0 0.0 0.0 0.0 0.0 2.8 3.4 0.0 0.0 0.0 0.6 0.8 1.3 5.8 9.5 7.3 13.4 1.0
0.0 0.0 0.0 0.0 0.0 0.0 0.0 5.5 41.2 11.2 0.8 4.2 2.0 2.8 1.8 1.4 0.0 0.0 0.0 0.0 0.0 0.0 0.2 0.0 0.1 0.0 0.0 0.0 0.0 0.0 0.0 1.8 2.0 3.3 0.9 0.4 0.5 0.1 0.0 2.3 9.5 2.8 2.2 0.1
0.0 0.0 0.0 0.0 0.0 0.0 0.0 19.1 25.4 0.0 20.1 9.0 3.9 1.4 1.0 1.6 2.6 0.0 0.0 0.2 0.3 1.0 4.2 1.6 0.8 0.0 0.0 0.0 0.0 0.0 0.1 3.7 0.1 0.0 0.0 0.1 0.0 0.0 0.1 1.4 1.7 6.5 0.3 0.3
0.0 0.0 0.0 0.0 0.0 0.0 0.5 33.7 11.0 1.3 0.1 0.1 1.9 2.9 4.4 2.7 2.5 2.9 1.6 1.7 1.0 0.6 5.8 2.6 5.6 1.7 0.2 0.1 0.0 0.0 0.1 8.7 2.1 0.9 0.1 0.1 0.6 0.1 0.2 0.1 0.1 0.4 0.3 0.6
0.0 0.0 0.0 0.0 0.0 0.0 0.7 1.3 0.0 1.2 1.8 2.9 3.1 3.0 1.2 1.0 2.5 0.4 0.5 3.0 4.8 3.3 1.5 0.1 0.0 0.0 0.0 0.0 0.0 1.0 1.7 3.8 5.4 7.0 0.1 0.1 3.4 0.2 0.0 1.3 1.9 2.1 1.0 0.8
0.0 0.0 0.0 0.0 0.0 0.0 0.0 0.0 0.0 11.4 15.6 3.5 1.0 0.4 0.4 2.2 1.4 2.6 0.3 0.0 0.7 0.0 0.0 0.0 0.0 0.0 0.0 0.0 0.0 0.0 0.7 2.9 5.8 8.4 0.9 14.1 0.1 0.0 0.0 1.4 0.9 0.0 0.1 0.0
0.0 0.0 0.0 0.0 0.0 0.0 0.0 0.0 0.0 8.6 16.8 1.9 1.8 1.8 2.2 0.9 0.9 1.8 0.7 0.1 0.0 0.0 0.0 4.2 2.1 0.7 0.2 0.8 0.0 0.0 0.0 1.9 10.2 11.9 5.5 0.4 0.4 0.0 0.3 1.1 1.1 0.3 0.4 0.1
0.0 0.0 0.0 0.0 0.0 0.0 0.0 0.0 0.0 3.3 19.7 6.4 0.6 2.2 0.4 2.4 2.3 2.0 1.4 0.0 0.0 0.0 1.4 5.2 7.0 8.4 2.9 2.4 1.5 0.0 0.1 0.8 8.3 10.1 17.2 9.4 1.7 0.3 0.0 0.0 5.6 1.5 0.5 0.2
0.0 0.0 0.0 0.0 0.0 0.0 0.0 0.0 0.0 0.0 17.0 0.5 0.0 4.8 2.1 1.0 1.4 2.3 0.8 0.4 0.1 0.0 6.1 9.5 7.3 3.3 0.1 2.4 5.9 8.3 5.8 10.5 19.1 13.5 21.6 4.8 1.0 0.0 0.0 2.1 7.2 1.0 0.7 1.4
0.0 0.0 0.0 0.0 0.0 0.0 0.0 0.0 0.0 0.0 7.6 2.2 0.8 0.0 0.9 0.9 0.3 2.6 1.3 1.1 1.9 3.0 9.0 5.7 4.3 4.1 1.9 3.1 1.2 8.8 13.2 16.9 10.9 12.3 18.1 15.0 0.5 0.0 3.5 3.0 0.9 1.3 1.6 2.2
0.0 0.0 0.0 0.0 0.0 0.0 0.0 0.0 0.0 0.0 3.5 1.7 0.0 0.0 0.0 0.0 0.0 1.1 0.6 2.1 2.1 3.3 8.8 6.5 2.6 4.8 2.3 2.5 5.5 3.4 16.1 11.6 12.5 7.4 6.6 2.0 1.2 1.8 1.6 1.6 2.1 2.1 1.9 1.2
0.0 0.0 0.0 0.0 0.0 0.0 0.0 0.0 0.0 0.0 10.9 6.0 0.0 0.1 0.0 0.0 0.0 0.0 4.2 0.5 0.0 0.6 0.0 4.4 2.9 4.2 0.9 3.7 2.8 4.9 5.1 3.0 11.6 6.1 3.2 1.2 2.1 0.8 0.9 1.2 1.5 0.5 0.0 0.0
0.0 0.0 0.0 0.0 0.0 0.0 0.0 0.0 0.0 0.0 6.2 18.6 0.8 0.0 0.0 0.0 0.0 0.0 0.0 0.0 0.0 0.0 2.1 10.0 7.0 5.5 0.4 0.7 0.2 1.6 4.6 2.7 5.6 7.9 5.9 0.8 0.9 1.5 1.8 0.8 0.3 0.3 0.0 0.0
0.0 0.0 0.0 0.0 0.0 0.0 0.0 0.0 0.0 0.0 0.4 8.8 2.4 0.0 0.0 0.0 0.0 0.0 0.0 0.0 0.0 1.5 9.5 12.7 8.1 0.9 1.8 0.2 0.5 2.8 0.2 1.7 6.1 10.8 5.4 6.3 4.4 5.5 1.8 1.1 0.3 0.0 0.0 0.0
0.0 0.0 0.0 0.0 0.0 0.0 0.0 7.8 0.0 0.0 0.0 8.3 7.0 0.0 0.0 0.0 0.0 0.0 0.0 0.0 0.0 3.0 9.1 6.7 2.2 0.0 2.9 9.7 2.3 0.0 0.0 0.5 2.0 2.2 1.8 1.9 1.8 0.0 0.0 0.4 1.1 0.7 0.0 0.2
0.0 0.0 0.0 0.0 0.0 0.0 1.1 3.6 0.0 0.0 0.0 16.4 15.3 3.0 0.9 0.0 0.0 0.0 0.0 0.0 0.3 0.9 5.8 3.6 0.5 0.1 3.1 5.2 1.5 0.1 0.0 0.1 0.0 0.0 0.5 0.4 0.0 0.4 0.0 0.0 0.0 0.4 0.0 0.0
0.0 0.0 0.0 0.0 0.0 0.0 0.2 0.0 0.0 0.0 0.3 2.3 18.7 4.3 4.6 0.0 2.7 3.1 0.7 1.9 1.5 2.9 2.3 2.1 1.3 0.7 1.6 6.0 0.2 0.0 0.0 0.0 0.1 0.1 0.0 0.1 0.0 0.0 0.0 0.0 0.0 0.2 0.1 0.0
0.0 0.0 0.0 0.0 0.0 8.1 0.0 0.0 0.0 0.0 0.1 11.0 8.2 8.2 12.9 1.1 2.1 1.7 2.7 1.1 9.5 0.8 4.5 1.0 1.3 2.5 6.6 1.1 0.1 0.0 0.0 0.4 0.2 0.1 0.0 0.0 0.1 0.0 0.0 0.0 0.2 0.6 0.1 0.0
0.0 0.0 22.3 47.1 2.8 0.0 0.0 0.0 10.4 10.7 5.2 2.4 5.9 1.8 10.2 2.5 6.0 6.4 7.3 3.1 6.2 8.8 1.0 0.1 4.8 2.2 0.6 0.2 0.2 0.1 0.1 0.1 0.1 1.9 0.8 0.1 0.2 0.2 0.1 0.3 0.5 1.0 0.6 0.4
0.0 21.4 9.4 0.0 0.0 0.0 3.6 23.2 23.2 10.4 11.9 2.6 0.6 0.4 2.8 0.5 11.0 9.2 1.5 14.7 5.8 11.1 1.4 3.5 4.9 6.6 2.2 0.1 0.3 0.0 0.0 0.0 0.0 0.1 0.1 0.1 1.7 2.6 1.6 0.6 0.5 0.8 0.5 0.7
0.0 0.0 0.0 0.0 1.3 9.2 16.3 12.9 11.0 4.8 1.7 0.5 0.9 2.0 2.8 2.6 2.7 14.6 10.0 10.3 12.8 8.0 0.7 13.8 11.0 6.7 0.7 0.1 0.2 0.0 0.0 0.0 0.2 0.2 1.5 1.1 1.5 1.7 1.5 1.5 1.4 1.0 0.8 1.9
0.0 1.3 8.5 12.3 17.6 21.6 14.8 10.4 4.9 5.2 2.7 1.2 4.2 11.1 9.1 7.4 8.8 18.6 11.6 14.7 7.8 0.7 10.2 7.5 9.8 1.4 0.1 0.1 0.1 0.0 0.0 0.2 1.2 1.4 0.9 1.1 0.6 0.3 1.0 1.1 1.3 2.1 3.4 5.6
7.1 19.6 26.6 17.7 15.0 7.8 4.4 1.8 3.5 3.8 3.0 1.4 3.0 13.2 14.9 7.7 17.6 10.7 17.3 9.2 5.2 13.5 11.4 14.6 4.0 1.0 0.5 0.4 0.1 0.0 0.1 0.4 0.9 1.0 0.5 0.6 0.8 1.1 1.8 2.9 4.4 4.2 6.2 9.2
13.6 8.6 12.7 10.1 6.7 4.4 3.9 1.9 0.5 0.8 0.3 0.7 4.4 7.6 10.1 15.4 20.3 11.9 9.8 19.4 16.4 13.9 18.8 11.1 4.4 1.7 1.4 1.3 1.8 1.7 0.9 2.1 2.9 5.5 6.2 5.1 4.9 4.7 6.6 7.8 7.6 6.4 7.3 7.9
7.2 5.9 7.8 4.9 4.2 5.7 4.3 3.3 3.4 1.7 1.7 0.8 2.0 14.1 15.7 21.6 14.4 21.8 15.5 16.1 17.8 17.5 7.8 5.0 3.2 3.4 4.1 4.1 4.6 5.6 6.6 8.6 11.0 11.9 11.8 11.5 10.5 9.4 10.5 11.7 10.8 11.1 9.5 10.6
5.6 9.1 6.8 5.3 5.0 9.0 6.9 5.3 5.1 2.0 4.3 8.4 7.6 15.3 15.3 8.1 11.3 10.6 6.8 13.3 10.5 6.0 5.4 5.4 5.0 5.3 6.1 6.3 6.9 8.0 8.0 7.7 9.0 10.5 10.4 12.8 11.5 10.0 8.2 9.5 12.0 10.7 10.7 10.1

GFSNW_prec_kuchsnow_222.txt.gz
Snowfall_Accumulation
0.0 0.0 0.0 0.0 0.0 0.0 0.0 0.0 16.3 0.0 0.0 5.4 5.7 6.8 0.0 0.0 0.0 0.0 0.0 0.0 0.0 0.0 0.0 0.0 0.0 0.0 0.0 0.0 0.0 0.0 0.0 0.2 0.7 0.0 0.0 0.0 0.0 1.1 4.9 14.4 15.7 8.9 7.8 0.5
0.0 0.0 0.0 0.0 0.0 0.0 0.0 4.6 9.5 0.0 0.0 44.5 22.5 0.0 0.1 0.0 0.0 0.0 0.0 0.1 0.0 0.0 0.0 0.2 0.0 0.0 0.0 0.0 0.0 0.0 0.0 2.8 3.4 0.0 0.0 0.0 0.6 0.8 1.3 5.8 9.5 7.3 13.4 1.0
0.0 0.0 0.0 0.0 0.0 0.0 0.0 5.5 51.5 11.2 0.8 4.2 2.0 2.8 1.8 1.4 0.0 0.0 0.0 0.0 0.0 0.0 0.2 0.0 0.1 0.0 0.0 0.0 0.0 0.0 0.0 1.8 2.0 3.3 0.9 0.4 0.5 0.1 0.0 2.3 9.5 2.8 2.2 0.1
0.0 0.0 0.0 0.0 0.0 0.0 0.0 19.1 31.9 0.0 24.7 11.3 3.9 1.4 1.0 1.6 2.6 0.0 0.0 0.2 0.3 1.0 4.2 1.6 0.8 0.0 0.0 0.0 0.0 0.0 0.1 3.7 0.1 0.0 0.0 0.1 0.0 0.0 0.1 1.4 1.7 6.5 0.3 0.3
0.0 0.0 0.0 0.0 0.0 0.0 0.5 33.7 12.6 1.3 0.1 0.1 1.9 2.9 4.4 2.7 2.5 2.9 1.6 1.7 1.0 0.6 5.8 2.6 5.6 1.7 0.2 0.1 0.0 0.0 0.1 8.7 2.1 0.9 0.1 0.1 0.6 0.1 0.2 0.1 0.1 0.4 0.3 0.6
0.0 0.0 0.0 0.0 0.0 0.0 0.7 1.3 0.0 1.2 1.8 2.9 3.1 3.0 1.2 1.0 2.5 0.4 0.5 3.0 4.8 3.3 1.5 0.1 0.0 0.0 0.0 0.0 0.0 1.0 1.7 3.8 5.5 7.3 0.1 0.1 3.4 0.2 0.0 1.3 1.9 2.1 1.0 0.8
0.0 0.0 0.0 0.0 0.0 0.0 0.0 0.0 0.0 11.4 15.6 3.5 1.0 0.4 0.4 2.2 1.4 2.6 0.3 0.0 0.7 0.0 0.0 0.0 0.0 0.0 0.0 0.0 0.0 0.0 0.7 2.9 5.8 9.1 1.1 14.7 0.1 0.0 0.0 1.4 0.9 0.0 0.1 0.0
0.0 0.0 0.0 0.0 0.0 0.0 0.0 0.0 0.0 8.6 18.4 1.9 1.8 1.8 2.2 0.9 0.9 1.8 0.7 0.1 0.0 0.0 0.0 5.8 7.2 4.6 2.5 2.2 0.0 0.0 0.0 2.1 10.5 12.3 5.9 0.4 0.4 0.0 0.3 1.1 1.1 0.3 0.4 0.1
0.0 0.0 0.0 0.0 0.0 0.0 0.0 0.0 0.0 3.3 19.7 6.4 0.6 2.2 0.4 3.4 3.7 3.9 4.2 0.0 0.0 0.0 4.2 8.7 10.9 10.7 3.4 2.8 1.6 0.0 0.1 0.8 8.3 10.6 17.9 9.4 1.7 0.3 0.0 0.0 5.6 1.5 0.5 0.2
0.0 0.0 0.0 0.0 0.0 0.0 0.0 0.0 0.0 0.0 17.0 0.5 0.0 4.8 2.1 1.0 1.4 5.0 3.9 2.2 1.4 0.0 7.9 11.8 9.1 4.1 0.1 2.4 5.9 8.4 6.1 11.0 19.5 13.8 21.6 4.8 1.0 0.0 0.0 2.1 7.2 1.0 0.7 1.4
0.0 0.0 0.0 0.0 0.0 0.0 0.0 0.0 0.0 0.0 7.6 3.5 0.8 0.0 1.8 1.6 0.3 4.6 5.2 3.3 4.4 5.0 11.0 7.3 5.5 4.4 1.9 3.1 1.2 8.8 13.2 17.3 11.2 12.6 18.4 15.1 0.5 0.0 3.5 3.0 0.9 1.3 1.6 2.2
0.0 0.0 0.0 0.0 0.0 0.0 0.0 0.0 0.0 0.0 3.5 3.1 0.0 0.0 0.0 0.0 0.0 1.1 1.5 2.4 2.5 3.3 9.6 7.2 2.8 5.0 2.3 2.5 5.5 3.4 16.1 11.6 12.5 7.4 6.6 2.0 1.2 1.8 1.6 1.6 2.1 2.1 1.9 1.2
0.0 0.0 0.0 0.0 0.0 0.0 0.0 0.0 0.0 0.0 11.5 6.9 0.0 1.0 0.0 0.0 0.0 0.0 4.7 1.5 0.0 0.6 0.0 4.4 3.1 4.4 0.9 3.8 2.8 4.9 5.1 3.0 11.6 6.1 3.2 1.2 2.1 0.8 0.9 1.2 1.5 0.5 0.0 0.0
0.0 0.0 0.0 0.0 0.0 0.0 0.0 0.0 0.0 0.0 6.2 19.8 2.2 0.0 0.0 0.0 0.0 0.0 0.0 0.0 0.0 0.0 2.1 10.1 7.2 5.6 0.4 0.8 0.2 1.6 4.6 2.7 5.6 7.9 5.9 0.8 0.9 1.5 1.8 0.8 0.3 0.3 0.0 0.0
0.0 0.0 0.0 0.0 0.0 0.0 0.0 0.0 0.0 0.0 0.4 9.4 3.3 0.0 0.0 0.0 0.0 0.0 0.0 0.0 0.0 1.5 9.7 12.9 8.2 0.9 1.8 0.2 0.5 2.8 0.2 1.7 6.1 10.8 5.4 6.3 4.4 5.5 1.8 1.1 0.3 0.0 0.0 0.0
0.0 0.0 0.0 0.0 0.0 0.0 0.0 7.8 0.0 0.0 0.0 8.3 7.8 0.0 0.0 0.0 0.0 0.0 0.0 0.0 0.0 3.0 9.1 6.7 2.2 0.0 2.9 9.7 2.3 0.0 0.0 0.5 2.0 2.2 1.8 1.9 1.8 0.0 0.0 0.4 1.1 0.7 0.0 0.2
0.0 0.0 0.0 0.0 0.0 0.0 1.1 3.7 0.0 0.0 0.0 16.4 15.5 3.3 1.1 0.0 0.0 0.0 0.0 0.0 0.3 0.9 5.8 3.6 0.5 0.1 3.1 5.2 1.5 0.1 0.0 0.1 0.0 0.0 0.5 0.4 0.0 0.4 0.0 0.0 0.0 0.4 0.0 0.0
0.0 0.0 0.0 0.0 0.0 0.0 0.2 0.0 0.0 0.0 0.3 2.3 18.8 4.8 4.8 0.0 2.7 3.1 0.7 1.9 1.5 2.9 2.3 2.1 1.3 0.7 1.6 6.0 0.2 0.0 0.0 0.0 0.1 0.1 0.0 0.1 0.0 0.0 0.0 0.0 0.0 0.2 0.1 0.0
0.0 0.0 0.0 0.0 0.0 8.1 0.0 0.0 0.0 0.0 0.1 11.0 8.2 8.2 13.2 1.1 2.1 1.7 2.7 1.1 9.5 0.8 4.5 1.0 1.3 2.5 6.6 1.1 0.1 0.0 0.0 0.4 0.2 0.1 0.0 0.0 0.1 0.0 0.0 0.0 0.2 0.6 0.1 0.0
0.0 0.0 22.3 47.1 2.8 0.0 0.0 0.0 10.4 10.7 5.2 2.4 5.9 1.8 10.2 2.5 6.0 6.4 7.3 3.1 6.2 8.8 1.0 0.1 4.8 2.2 0.6 0.2 0.2 0.1 0.1 0.1 0.1 1.9 0.8 0.1 0.2 0.2 0.1 0.3 0.5 1.0 0.6 0.4
0.0 21.4 9.4 0.0 0.0 0.0 3.6 23.2 23.2 10.4 11.9 2.6 0.6 0.4 2.8 0.5 11.0 9.2 1.5 14.7 5.8 11.2 1.4 3.5 4.9 6.6 2.2 0.1 0.3 0.0 0.0 0.0 0.0 0.1 0.1 0.1 1.7 2.6 1.6 0.6 0.5 0.8 0.5 0.7
0.0 0.0 0.0 0.0 1.3 9.2 16.3 12.9 11.0 4.8 1.7 0.5 0.9 2.0 2.8 2.6 2.7 14.6 10.0 10.3 12.8 8.2 0.7 13.9 11.1 6.7 0.7 0.1 0.2 0.0 0.0 0.0 0.2 0.2 1.5 1.1 1.5 1.7 1.5 1.5 1.4 1.0 0.8 1.9
0.0 1.3 8.5 12.3 17.6 21.6 14.8 10.4 4.9 5.2 2.7 1.2 4.3 11.2 9.1 7.4 8.8 18.6 11.7 14.8 7.9 0.7 10.4 7.6 9.8 1.4 0.1 0.1 0.1 0.0 0.0 0.2 1.2 1.4 0.9 1.1 0.6 0.3 1.0 1.1 1.3 2.1 3.4 5.6
7.1 19.6 26.6 17.7 15.0 7.8 4.4 1.8 3.5 3.8 3.0 1.4 3.0 13.2 15.0 7.7 17.6 10.7 17.4 9.3 5.3 13.6 11.6 14.6 4.0 1.0 0.5 0.4 0.1 0.0 0.1 0.4 0.9 1.0 0.5 0.6 0.8 1.1 1.8 2.9 4.4 4.2 6.2 9.2
13.6 8.6 12.7 10.1 6.7 4.4 3.9 1.9 0.5 0.8 0.3 0.7 4.4 7.6 10.1 15.4 20.3 11.9 9.8 19.4 16.7 14.0 18.8 11.2 4.4 1.7 1.4 1.3 1.8 1.7 0.9 2.1 2.9 5.5 6.2 5.1 4.9 4.7 6.6 7.8 7.6 6.4 7.3 7.9
7.2 5.9 7.8 4.9 4.2 5.9 4.4 3.3 3.5 1.7 1.7 0.8 2.0 14.1 15.7 21.6 14.5 21.9 15.5 16.1 17.8 17.6 7.9 5.0 3.2 3.4 4.1 4.1 4.6 5.6 6.6 8.6 11.0 11.9 11.8 11.5 10.5 9.4 10.5 11.7 10.8 11.1 9.5 10.6
5.6 9.1 6.8 5.3 5.1 9.0 7.0 5.3 5.1 2.0 4.3 8.4 7.6 15.3 15.3 8.1 11.4 10.6 6.8 13.3 10.6 6.0 5.4 5.4 5.0 5.3 6.1 6.3 6.9 8.0 8.0 7.7 9.0 10.5 10.4 12.8 11.5 10.0 8.2 9.5 12.0 10.7 10.7 10.1